Time,TemperatureF,DewpointF,PressureIn,WindDirection,WindDirectionDegrees,WindSpeedMPH,WindSpeedGustMPH,Humidity,HourlyPrecipIn,Conditions,Clouds,dailyrainin,SoftwareType,DateUTC
2013-06-23 00:01:00,70.0,67.0,-100.00,SW,225,0.0,3.0,89,0.00,,,-99.99,,2013-06-23 04:01:00,
2013-06-23 00:11:00,70.0,67.0,-100.00,SW,225,1.0,3.0,90,0.00,,,-99.99,,2013-06-23 04:11:00,
2013-06-23 00:21:00,69.0,66.0,-100.00,SW,225,1.0,4.0,90,0.00,,,-99.99,,2013-06-23 04:21:00,
2013-06-23 00:31:00,69.0,66.0,-100.00,SW,235,1.0,3.0,90,0.00,,,-99.99,,2013-06-23 04:31:00,
2013-06-23 00:42:00,70.0,67.0,-100.00,SW,230,1.0,3.0,90,0.00,,,-99.99,,2013-06-23 04:42:00,
2013-06-23 00:52:00,69.0,66.0,-100.00,WSW,245,1.0,3.0,90,0.00,,,-99.99,,2013-06-23 04:52:00,
2013-06-23 01:01:00,69.0,66.0,-100.00,WNW,285,0.0,3.0,90,0.00,,,-99.99,,2013-06-23 05:01:00,
2013-06-23 01:11:00,68.0,65.0,-100.00,ENE,60,0.0,1.0,90,0.00,,,-99.99,,2013-06-23 05:11:00,
2013-06-23 01:22:00,68.0,66.0,-100.00,North,10,0.0,2.0,91,0.00,,,-99.99,,2013-06-23 05:22:00,
2013-06-23 01:32:00,69.0,66.0,-100.00,SE,145,0.0,3.0,91,0.00,,,-99.99,,2013-06-23 05:32:00,
2013-06-23 01:41:00,68.0,65.0,-100.00,NNW,330,0.0,2.0,91,0.00,,,-99.99,,2013-06-23 05:41:00,
2013-06-23 01:51:00,68.0,66.0,-100.00,NE,55,0.0,1.0,91,0.00,,,-99.99,,2013-06-23 05:51:00,
2013-06-23 02:02:00,68.0,66.0,-100.00,SW,220,0.0,1.0,91,0.00,,,-99.99,,2013-06-23 06:02:00,
2013-06-23 02:12:00,67.0,65.0,-100.00,WSW,250,1.0,3.0,91,0.00,,,-99.99,,2013-06-23 06:12:00,
2013-06-23 02:22:00,67.0,65.0,-100.00,SW,235,1.0,3.0,91,0.00,,,-99.99,,2013-06-23 06:22:00,
2013-06-23 02:33:00,67.0,65.0,-100.00,West,270,1.0,2.0,92,0.00,,,-99.99,,2013-06-23 06:33:00,
2013-06-23 02:43:00,67.0,65.0,-100.00,North,10,0.0,2.0,92,0.00,,,-99.99,,2013-06-23 06:43:00,
2013-06-23 02:52:00,67.0,65.0,-100.00,East,95,0.0,2.0,92,0.00,,,-99.99,,2013-06-23 06:52:00,
2013-06-23 03:02:00,67.0,65.0,-100.00,North,350,0.0,1.0,92,0.00,,,-99.99,,2013-06-23 07:02:00,
2013-06-23 03:12:00,67.0,65.0,-100.00,NW,325,0.0,0.0,92,0.00,,,-99.99,,2013-06-23 07:12:00,
2013-06-23 03:22:00,67.0,65.0,-100.00,North,5,0.0,1.0,92,0.00,,,-99.99,,2013-06-23 07:22:00,
2013-06-23 03:34:00,67.0,65.0,-100.00,South,190,0.0,0.0,92,0.00,,,-99.99,,2013-06-23 07:34:00,
2013-06-23 03:43:00,67.0,65.0,-100.00,SW,230,0.0,2.0,92,0.00,,,-99.99,,2013-06-23 07:43:00,
2013-06-23 03:53:00,67.0,64.0,-100.00,SW,215,0.0,1.0,92,0.00,,,-99.99,,2013-06-23 07:53:00,
2013-06-23 04:02:00,66.0,64.0,-100.00,WNW,285,0.0,1.0,92,0.00,,,-99.99,,2013-06-23 08:02:00,
2013-06-23 04:12:00,66.0,64.0,-100.00,West,260,0.0,1.0,92,0.00,,,-99.99,,2013-06-23 08:12:00,
2013-06-23 04:22:00,66.0,64.0,-100.00,WNW,290,0.0,0.0,92,0.00,,,-99.99,,2013-06-23 08:22:00,
2013-06-23 04:43:00,66.0,64.0,-100.00,WNW,290,0.0,0.0,93,0.00,,,-99.99,,2013-06-23 08:43:00,
2013-06-23 04:53:00,66.0,64.0,-100.00,SSW,200,0.0,0.0,93,0.00,,,-99.99,,2013-06-23 08:53:00,
2013-06-23 05:02:00,66.0,64.0,-100.00,West,280,0.0,0.0,93,0.00,,,-99.99,,2013-06-23 09:02:00,
2013-06-23 05:12:00,66.0,64.0,-100.00,East,100,0.0,0.0,93,0.00,,,-99.99,,2013-06-23 09:12:00,
2013-06-23 05:22:00,66.0,64.0,-100.00,East,100,0.0,0.0,93,0.00,,,-99.99,,2013-06-23 09:22:00,
2013-06-23 05:34:00,66.0,64.0,-100.00,NNW,330,0.0,0.0,93,0.00,,,-99.99,,2013-06-23 09:34:00,
2013-06-23 05:43:00,65.0,64.0,-100.00,NE,50,0.0,1.0,93,0.00,,,-99.99,,2013-06-23 09:43:00,
2013-06-23 05:53:00,65.0,63.0,-100.00,North,0,0.0,0.0,93,0.00,,,-99.99,,2013-06-23 09:53:00,
2013-06-23 06:02:00,66.0,64.0,-100.00,ESE,105,0.0,0.0,93,0.00,,,-99.99,,2013-06-23 10:02:00,
2013-06-23 06:11:00,66.0,64.0,-100.00,ESE,110,0.0,0.0,93,0.00,,,-99.99,,2013-06-23 10:11:00,
2013-06-23 06:22:00,66.0,64.0,-100.00,WNW,300,0.0,1.0,93,0.00,,,-99.99,,2013-06-23 10:22:00,
2013-06-23 06:34:00,66.0,64.0,-100.00,WNW,300,0.0,1.0,93,0.00,,,-99.99,,2013-06-23 10:34:00,
2013-06-23 06:43:00,66.0,64.0,-100.00,SW,225,0.0,2.0,93,0.55,,,-99.99,,2013-06-23 10:43:00,
2013-06-23 06:53:00,66.0,64.0,-100.00,SW,225,0.0,2.0,93,0.55,,,-99.99,,2013-06-23 10:53:00,
2013-06-23 07:01:00,66.0,64.0,-100.00,SW,215,0.0,1.0,93,0.00,,,-99.99,,2013-06-23 11:01:00,
2013-06-23 07:11:00,66.0,64.0,-100.00,WNW,295,0.0,1.0,94,0.55,,,-99.99,,2013-06-23 11:11:00,
2013-06-23 07:22:00,66.0,65.0,-100.00,North,10,0.0,1.0,94,0.55,,,-99.99,,2013-06-23 11:22:00,
2013-06-23 07:33:00,67.0,65.0,-100.00,SW,235,0.0,1.0,94,0.55,,,-99.99,,2013-06-23 11:33:00,
2013-06-23 07:43:00,67.0,65.0,-100.00,SW,220,0.0,2.0,94,0.55,,,-99.99,,2013-06-23 11:43:00,
2013-06-23 07:53:00,67.0,65.0,-100.00,SW,220,0.0,1.0,94,0.55,,,-99.99,,2013-06-23 11:53:00,
2013-06-23 08:01:00,67.0,65.0,-100.00,SSW,205,0.0,3.0,94,0.55,,,-99.99,,2013-06-23 12:01:00,
2013-06-23 08:12:00,67.0,66.0,-100.00,SW,220,0.0,2.0,94,0.55,,,-99.99,,2013-06-23 12:12:00,
2013-06-23 08:22:00,68.0,66.0,-100.00,West,280,0.0,1.0,94,0.55,,,-99.99,,2013-06-23 12:22:00,
2013-06-23 08:33:00,68.0,66.0,-100.00,SW,235,1.0,1.0,94,0.55,,,-99.99,,2013-06-23 12:33:00,
2013-06-23 08:42:00,68.0,66.0,-100.00,WSW,250,0.0,2.0,94,0.00,,,-99.99,,2013-06-23 12:42:00,
2013-06-23 08:53:00,69.0,67.0,-100.00,SSE,150,0.0,2.0,94,0.00,,,-99.99,,2013-06-23 12:53:00,
2013-06-23 09:02:00,70.0,68.0,-100.00,WSW,245,0.0,2.0,94,0.00,,,-99.99,,2013-06-23 13:02:00,
2013-06-23 09:11:00,72.0,69.0,-100.00,ESE,105,0.0,2.0,92,0.00,,,-99.99,,2013-06-23 13:11:00,
2013-06-23 09:23:00,73.0,69.0,-100.00,SW,215,1.0,2.0,89,0.00,,,-99.99,,2013-06-23 13:23:00,
2013-06-23 09:34:00,73.0,69.0,-100.00,SSW,210,1.0,2.0,87,0.00,,,-99.99,,2013-06-23 13:34:00,
2013-06-23 09:43:00,74.0,70.0,-100.00,SW,225,0.0,3.0,85,0.00,,,-99.99,,2013-06-23 13:43:00,
2013-06-23 09:53:00,76.0,70.0,-100.00,SW,220,1.0,3.0,80,0.00,,,-99.99,,2013-06-23 13:53:00,
2013-06-23 10:05:00,76.0,70.0,-100.00,SW,220,1.0,3.0,80,0.00,,,-99.99,,2013-06-23 14:05:00,
2013-06-23 10:11:00,79.0,70.0,-100.00,SW,220,1.0,3.0,73,0.00,,,-99.99,,2013-06-23 14:11:00,
2013-06-23 10:22:00,80.0,70.0,-100.00,SSW,200,1.0,3.0,73,0.00,,,-99.99,,2013-06-23 14:22:00,
2013-06-23 10:34:00,80.0,70.0,-100.00,SSW,200,1.0,3.0,73,0.00,,,-99.99,,2013-06-23 14:34:00,
2013-06-23 10:44:00,80.0,70.0,-100.00,East,95,1.0,5.0,70,0.00,,,-99.99,,2013-06-23 14:44:00,
2013-06-23 10:52:00,81.0,71.0,-100.00,SW,220,1.0,4.0,71,0.00,,,-99.99,,2013-06-23 14:52:00,
2013-06-23 11:05:00,81.0,70.0,-100.00,East,80,1.0,4.0,69,0.00,,,-99.99,,2013-06-23 15:05:00,
2013-06-23 11:12:00,81.0,70.0,-100.00,SSW,195,3.0,6.0,69,0.00,,,-99.99,,2013-06-23 15:12:00,
2013-06-23 11:23:00,83.0,70.0,-100.00,East,95,1.0,6.0,65,0.00,,,-99.99,,2013-06-23 15:23:00,
2013-06-23 11:35:00,84.0,71.0,-100.00,WNW,285,1.0,3.0,63,0.00,,,-99.99,,2013-06-23 15:35:00,
2013-06-23 11:43:00,84.0,71.0,-100.00,WNW,285,1.0,3.0,63,0.00,,,-99.99,,2013-06-23 15:43:00,
2013-06-23 11:52:00,84.0,71.0,-100.00,SW,215,2.0,6.0,64,0.00,,,-99.99,,2013-06-23 15:52:00,
2013-06-23 12:06:00,85.0,71.0,-100.00,ESE,110,2.0,6.0,60,0.00,,,-99.99,,2013-06-23 16:06:00,
2013-06-23 12:12:00,86.0,71.0,-100.00,SSW,200,2.0,5.0,61,0.00,,,-99.99,,2013-06-23 16:12:00,
2013-06-23 12:22:00,87.0,70.0,-100.00,WSW,250,1.0,6.0,57,0.00,,,-99.99,,2013-06-23 16:22:00,
2013-06-23 12:36:00,87.0,70.0,-100.00,SSW,210,1.0,7.0,57,0.00,,,-99.99,,2013-06-23 16:36:00,
2013-06-23 12:43:00,87.0,69.0,-100.00,SW,225,2.0,8.0,56,0.00,,,-99.99,,2013-06-23 16:43:00,
2013-06-23 12:53:00,86.0,69.0,-100.00,SW,235,2.0,7.0,56,0.00,,,-99.99,,2013-06-23 16:53:00,
2013-06-23 13:06:00,86.0,68.0,-100.00,SSW,195,3.0,8.0,54,0.00,,,-99.99,,2013-06-23 17:06:00,
2013-06-23 13:12:00,87.0,68.0,-100.00,SW,230,3.0,7.0,52,0.00,,,-99.99,,2013-06-23 17:12:00,
2013-06-23 13:22:00,87.0,68.0,-100.00,SW,230,3.0,7.0,52,0.00,,,-99.99,,2013-06-23 17:22:00,
2013-06-23 13:33:00,88.0,69.0,-100.00,SW,235,1.0,8.0,53,0.00,,,-99.99,,2013-06-23 17:33:00,
2013-06-23 13:43:00,88.0,66.0,-100.00,SSW,210,2.0,9.0,49,0.00,,,-99.99,,2013-06-23 17:43:00,
2013-06-23 13:53:00,88.0,67.0,-100.00,SW,220,4.0,7.0,50,0.00,,,-99.99,,2013-06-23 17:53:00,
2013-06-23 14:01:00,88.0,67.0,-100.00,South,190,4.0,9.0,49,0.00,,,-99.99,,2013-06-23 18:01:00,
2013-06-23 14:12:00,89.0,67.0,-100.00,South,185,3.0,7.0,48,0.00,,,-99.99,,2013-06-23 18:12:00,
2013-06-23 14:22:00,89.0,68.0,-100.00,SSE,160,2.0,11.0,49,0.00,,,-99.99,,2013-06-23 18:22:00,
2013-06-23 14:34:00,89.0,67.0,-100.00,South,185,4.0,9.0,48,0.00,,,-99.99,,2013-06-23 18:34:00,
2013-06-23 14:43:00,89.0,67.0,-100.00,South,185,4.0,9.0,48,0.00,,,-99.99,,2013-06-23 18:43:00,
2013-06-23 14:53:00,89.0,67.0,-100.00,South,185,4.0,9.0,48,0.00,,,-99.99,,2013-06-23 18:53:00,
2013-06-23 15:01:00,89.0,66.0,-100.00,SSE,165,3.0,8.0,46,0.00,,,-99.99,,2013-06-23 19:01:00,
2013-06-23 15:11:00,89.0,66.0,-100.00,SW,235,4.0,9.0,45,0.00,,,-99.99,,2013-06-23 19:11:00,
2013-06-23 15:21:00,86.0,67.0,-100.00,SW,225,6.0,12.0,53,0.00,,,-99.99,,2013-06-23 19:21:00,
2013-06-23 15:32:00,84.0,67.0,-100.00,WSW,250,6.0,12.0,56,0.55,,,-99.99,,2013-06-23 19:32:00,
2013-06-23 15:43:00,86.0,67.0,-100.00,SW,235,4.0,9.0,52,0.00,,,-99.99,,2013-06-23 19:43:00,
2013-06-23 15:53:00,88.0,68.0,-100.00,WSW,245,4.0,7.0,51,0.00,,,-99.99,,2013-06-23 19:53:00,
2013-06-23 16:02:00,89.0,69.0,-100.00,SW,215,2.0,6.0,51,0.00,,,-99.99,,2013-06-23 20:02:00,
2013-06-23 16:12:00,89.0,67.0,-100.00,SW,235,4.0,9.0,49,0.00,,,-99.99,,2013-06-23 20:12:00,
2013-06-23 16:24:00,89.0,67.0,-100.00,SW,235,4.0,9.0,49,0.00,,,-99.99,,2013-06-23 20:24:00,
2013-06-23 16:33:00,89.0,67.0,-100.00,SSW,195,4.0,9.0,48,0.00,,,-99.99,,2013-06-23 20:33:00,
2013-06-23 16:42:00,87.0,67.0,-100.00,SW,220,9.0,18.0,50,0.00,,,-99.99,,2013-06-23 20:42:00,
2013-06-23 16:53:00,84.0,66.0,-100.00,SW,215,6.0,14.0,54,0.00,,,-99.99,,2013-06-23 20:53:00,
2013-06-23 17:01:00,84.0,66.0,-100.00,SW,215,6.0,14.0,54,0.00,,,-99.99,,2013-06-23 21:01:00,
2013-06-23 17:34:00,78.0,62.0,-100.00,SW,225,4.0,9.0,58,0.00,,,-99.99,,2013-06-23 21:34:00,
2013-06-23 17:44:00,78.0,63.0,-100.00,SW,235,2.0,8.0,59,0.00,,,-99.99,,2013-06-23 21:44:00,
2013-06-23 17:52:00,78.0,63.0,-100.00,WSW,240,2.0,5.0,59,0.00,,,-99.99,,2013-06-23 21:52:00,
2013-06-23 18:01:00,79.0,64.0,-100.00,NW,305,1.0,4.0,59,0.00,,,-99.99,,2013-06-23 22:01:00,
2013-06-23 18:12:00,79.0,64.0,-100.00,SSW,210,1.0,4.0,60,0.00,,,-99.99,,2013-06-23 22:12:00,
2013-06-23 18:22:00,79.0,65.0,-100.00,WNW,290,1.0,5.0,62,0.00,,,-99.99,,2013-06-23 22:22:00,
2013-06-23 18:32:00,79.0,65.0,-100.00,North,0,1.0,3.0,61,0.00,,,-99.99,,2013-06-23 22:32:00,
2013-06-23 18:43:00,79.0,65.0,-100.00,West,265,1.0,3.0,61,0.00,,,-99.99,,2013-06-23 22:43:00,
2013-06-23 18:53:00,78.0,65.0,-100.00,WNW,290,2.0,6.0,63,0.00,,,-99.99,,2013-06-23 22:53:00,
2013-06-23 19:01:00,79.0,66.0,-100.00,SSW,210,1.0,5.0,63,0.00,,,-99.99,,2013-06-23 23:01:00,
2013-06-23 19:11:00,79.0,66.0,-100.00,North,355,1.0,3.0,65,0.00,,,-99.99,,2013-06-23 23:11:00,
2013-06-23 19:22:00,79.0,66.0,-100.00,ESE,105,1.0,4.0,64,0.00,,,-99.99,,2013-06-23 23:22:00,
2013-06-23 19:33:00,79.0,67.0,-100.00,WSW,255,1.0,4.0,66,0.00,,,-99.99,,2013-06-23 23:33:00,
2013-06-23 19:44:00,79.0,67.0,-100.00,WSW,255,1.0,4.0,66,0.00,,,-99.99,,2013-06-23 23:44:00,
2013-06-23 19:52:00,78.0,67.0,-100.00,SW,230,2.0,3.0,68,0.00,,,-99.99,,2013-06-23 23:52:00,
2013-06-23 20:22:00,78.0,67.0,-100.00,SSW,205,1.0,2.0,69,0.00,,,-99.99,,2013-06-24 00:22:00,
2013-06-23 20:33:00,78.0,67.0,-100.00,SSW,205,1.0,6.0,69,0.00,,,-99.99,,2013-06-24 00:33:00,
2013-06-23 20:42:00,77.0,67.0,-100.00,NE,45,0.0,2.0,71,0.00,,,-99.99,,2013-06-24 00:42:00,
2013-06-23 20:52:00,77.0,67.0,-100.00,WSW,250,1.0,2.0,73,0.00,,,-99.99,,2013-06-24 00:52:00,
2013-06-23 21:02:00,77.0,67.0,-100.00,WSW,250,1.0,2.0,73,0.00,,,-99.99,,2013-06-24 01:02:00,
2013-06-23 21:11:00,76.0,68.0,-100.00,South,185,1.0,3.0,76,0.00,,,-99.99,,2013-06-24 01:11:00,
2013-06-23 21:22:00,75.0,68.0,-100.00,SE,125,0.0,3.0,77,0.00,,,-99.99,,2013-06-24 01:22:00,
2013-06-23 21:32:00,75.0,68.0,-100.00,NNE,15,1.0,4.0,79,0.00,,,-99.99,,2013-06-24 01:32:00,
2013-06-23 21:42:00,74.0,68.0,-100.00,NNE,25,1.0,3.0,82,0.00,,,-99.99,,2013-06-24 01:42:00,
2013-06-23 21:53:00,73.0,68.0,-100.00,North,355,0.0,3.0,83,0.00,,,-99.99,,2013-06-24 01:53:00,
2013-06-23 22:02:00,73.0,68.0,-100.00,WSW,255,0.0,2.0,83,0.00,,,-99.99,,2013-06-24 02:02:00,
2013-06-23 22:11:00,73.0,68.0,-100.00,West,260,0.0,2.0,85,0.00,,,-99.99,,2013-06-24 02:11:00,
2013-06-23 22:22:00,72.0,68.0,-100.00,West,280,0.0,2.0,85,0.00,,,-99.99,,2013-06-24 02:22:00,
2013-06-23 22:33:00,72.0,68.0,-100.00,South,170,0.0,1.0,86,0.00,,,-99.99,,2013-06-24 02:33:00,
2013-06-23 22:42:00,71.0,67.0,-100.00,NNW,330,0.0,1.0,86,0.00,,,-99.99,,2013-06-24 02:42:00,
2013-06-23 22:53:00,71.0,67.0,-100.00,NNW,335,0.0,0.0,87,0.00,,,-99.99,,2013-06-24 02:53:00,
2013-06-23 23:01:00,71.0,67.0,-100.00,WNW,295,0.0,0.0,87,0.00,,,-99.99,,2013-06-24 03:01:00,
2013-06-23 23:11:00,71.0,67.0,-100.00,SSE,165,0.0,2.0,88,0.00,,,-99.99,,2013-06-24 03:11:00,
2013-06-23 23:22:00,71.0,67.0,-100.00,SSW,205,0.0,0.0,88,0.00,,,-99.99,,2013-06-24 03:22:00,
2013-06-23 23:33:00,70.0,67.0,-100.00,WNW,290,0.0,1.0,88,0.00,,,-99.99,,2013-06-24 03:33:00,
2013-06-23 23:43:00,70.0,67.0,-100.00,SW,235,0.0,3.0,88,0.00,,,-99.99,,2013-06-24 03:43:00,
2013-06-23 23:53:00,70.0,67.0,-100.00,SW,215,1.0,2.0,89,0.00,,,-99.99,,2013-06-24 03:53:00,